This is the latest recevied weather packets stored in our database for station/object K3SV. If no packets are shown the sender has not sent any weather packets the latest 10 day(s).
| Time | Temp. | Humidity | Pressure | Rain* | Wind** | Luminosity | Snow |
|---|---|---|---|---|---|---|---|
| 1777293808 | 22.78° C | 91% | 1015.8 hPa | 0 mm | - | 100 W/m² | - |
| 1777293502 | 22.78° C | 91% | 1015.6 hPa | 0 mm | - | 118 W/m² | - |
| 1777293198 | 22.22° C | 93% | 1015.7 hPa | 0 mm | - | 108 W/m² | - |
| 1777292897 | 22.22° C | 93% | 1015.6 hPa | 0 mm | - | 93 W/m² | - |
| 1777292594 | 22.22° C | 94% | 1015.6 hPa | 0 mm | - | 88 W/m² | - |
| 1777292290 | 21.67° C | 98% | 1015.6 hPa | 0 mm | - | 77 W/m² | - |
| 1777291986 | 21.67° C | 99% | 1015.4 hPa | 0 mm | - | 75 W/m² | - |
| 1777291683 | 21.11° C | 99% | 1015.2 hPa | 0 mm | - | 79 W/m² | - |
| 1777291380 | 21.11° C | 99% | 1015.2 hPa | 0 mm | - | 75 W/m² | - |
| 1777291076 | 21.11° C | 99% | 1015.3 hPa | 0 mm | - | 53 W/m² | - |
| 1777290773 | 20.56° C | 99% | 1015.3 hPa | 0 mm | - | 49 W/m² | - |
| 1777290469 | 20.56° C | 99% | 1015 hPa | 0 mm | - | 43 W/m² | - |
| 1777290165 | 20.56° C | 99% | 1015.2 hPa | 0 mm | - | 41 W/m² | - |
| 1777289862 | 20° C | 99% | 1014.9 hPa | 0 mm | - | 31 W/m² | - |
| 1777289558 | 20° C | 99% | 1015 hPa | 0 mm | - | 29 W/m² | - |
| 1777289253 | 20° C | 99% | 1014.8 hPa | 0 mm | - | 26 W/m² | - |
| 1777288950 | 19.44° C | 99% | 1014.7 hPa | 0 mm | - | 22 W/m² | - |
| 1777288647 | 19.44° C | 99% | 1014.8 hPa | 0 mm | - | 16 W/m² | - |
| 1777288344 | 19.44° C | 99% | 1014.4 hPa | 0 mm | - | 13 W/m² | - |
| 1777288040 | 19.44° C | 99% | 1014.4 hPa | 0 mm | - | 8 W/m² | - |
| 1777287738 | 19.44° C | 99% | 1014.3 hPa | 0 mm | - | 4 W/m² | - |
| 1777287434 | 19.44° C | 99% | 1014.3 hPa | 0 mm | - | 2 W/m² | - |
| 1777287129 | 19.44° C | 99% | 1014.1 hPa | 0 mm | - | 2 W/m² | - |
| 1777286826 | 19.44° C | 99% | 1014.1 hPa | 0 mm | - | 1 W/m² | - |
| 1777286524 | 19.44° C | 99% | 1014 hPa | 0 mm | - | 0 W/m² | - |
* Rain latest hour (hover to see other rain measurements)
** Current wind speed in m/s (hover to see current wind gust speed)